GEFSSE_500_meanwind_138.txt.gz
Wind_Speed
6 7 7 7 6 6 5 5 5 5 5 5 6 6 6 6 6 6 6 6 6 5 5 5 5 4 4 4 4 4 4 4 4 4 4 5 5 5 5 5 6 6 6
6 7 7 7 6 5 5 5 5 5 5 5 5 5 5 5 5 5 5 5 5 5 5 5 4 4 3 3 3 3 3 3 3 3 4 4 4 5 5 5 5 5 5
7 7 7 8 7 6 6 5 5 5 5 5 5 5 5 5 4 4 4 4 4 4 4 4 4 3 3 2 2 2 2 2 3 3 3 3 3 4 5 5 5 5 5
8 8 8 8 8 7 6 6 5 5 5 5 5 4 4 4 3 3 3 4 4 4 3 3 3 2 2 2 2 2 2 2 2 2 2 3 3 3 4 4 4 4 4
9 9 9 8 8 8 7 7 6 6 6 6 5 5 4 3 3 3 3 3 3 3 3 2 2 2 2 1 1 1 1 1 1 1 1 2 3 3 3 3 4 4 4
10 10 10 10 9 8 8 7 7 7 7 6 6 5 4 3 2 2 3 3 3 3 2 2 2 2 1 1 1 1 1 1 0 0 1 1 2 2 2 3 3 3 3
10 11 11 11 10 9 8 8 7 7 7 7 6 5 4 3 2 2 2 3 2 2 2 1 1 1 1 1 1 1 1 1 1 1 1 0 0 1 2 2 2 2 2
10 11 11 12 11 10 10 9 9 8 8 7 6 5 4 3 3 2 2 2 2 1 1 1 1 0 0 1 1 1 1 1 1 1 1 1 0 0 1 2 2 1 1
10 12 13 13 12 12 11 11 10 9 8 8 7 6 5 4 3 3 2 2 1 1 1 1 1 0 1 1 1 1 1 1 1 2 2 2 2 1 1 2 2 1 1
10 12 13 14 13 13 13 12 12 11 10 9 8 7 6 4 4 3 3 2 1 1 1 1 0 1 1 2 2 2 1 1 1 2 2 2 3 2 2 3 3 2 2
10 13 14 14 14 14 14 14 13 12 11 10 9 7 7 5 5 4 4 3 2 1 1 0 0 1 2 2 2 2 2 2 2 2 2 2 2 2 2 3 4 3 4
11 12 14 14 16 16 16 16 15 15 13 12 10 9 7 6 5 5 4 4 3 1 1 0 1 1 2 2 2 1 2 2 3 2 2 2 2 2 2 3 3 4 5
12 13 14 16 17 17 17 18 17 16 15 14 12 10 8 7 6 5 5 4 4 2 1 1 1 1 2 2 2 1 2 2 4 3 2 2 3 2 2 3 3 4 4
12 12 14 15 16 18 19 18 19 18 16 15 13 11 9 8 7 6 6 5 5 3 2 2 2 2 2 2 1 2 2 2 2 2 3 3 3 3 3 3 3 3 4
13 13 13 14 16 17 18 19 20 19 18 16 14 12 11 9 8 7 7 6 6 5 3 3 2 2 2 2 1 2 2 1 2 2 3 3 3 3 3 3 3 3 4
14 14 14 14 15 16 18 20 20 20 19 17 16 14 12 10 10 8 7 7 6 5 4 3 3 3 2 1 1 1 1 1 1 3 3 3 3 3 2 2 2 2 3
15 15 15 15 15 16 17 19 19 20 19 18 17 15 13 11 10 9 7 7 5 5 5 4 3 2 2 1 1 0 1 1 1 2 3 2 2 2 2 2 2 2 2
15 15 16 16 16 17 17 18 19 19 20 18 17 15 13 12 10 9 8 7 6 6 5 4 3 2 2 1 1 0 1 1 1 1 1 2 2 2 1 1 2 2 2
14 15 16 17 17 17 18 18 17 20 21 20 18 16 15 13 11 10 9 7 6 6 5 4 3 2 1 0 1 1 1 1 1 2 2 2 2 2 2 1 1 2 2
15 15 16 17 18 18 18 18 17 20 21 20 18 17 16 15 13 11 10 8 7 6 6 5 5 3 2 1 0 0 1 1 2 2 2 2 2 2 2 2 2 2 2
15 15 16 16 18 19 18 18 18 18 20 20 19 18 17 16 14 12 10 9 8 7 6 6 5 4 3 2 1 1 0 1 2 2 2 2 3 3 2 2 3 3 3
13 14 15 16 17 18 18 18 18 19 19 19 19 18 18 17 15 13 12 10 9 8 7 6 5 4 4 3 2 2 1 1 1 2 2 3 3 3 3 3 3 3 3
14 14 14 15 17 18 19 18 18 19 19 18 18 19 19 18 17 15 13 12 11 9 8 7 6 5 5 4 3 2 2 2 1 1 2 2 2 2 3 3 4 3 3
13 13 14 15 16 17 17 17 18 19 20 19 19 19 19 18 17 16 15 13 12 10 9 9 8 7 7 5 5 4 3 3 3 2 2 2 2 3 3 4 4 4 4
12 12 13 15 15 16 16 17 17 19 20 20 20 19 19 19 18 16 16 14 13 12 11 10 10 9 8 7 7 6 6 5 5 4 4 4 4 4 5 5 5 5 5
11 12 12 13 14 14 15 16 17 18 20 20 20 19 18 18 18 17 16 16 15 14 13 12 12 11 10 9 9 8 8 8 8 7 7 7 7 7 7 7 7 7 8

GEFSSE_500_meanwind_144.txt.gz
Wind_Speed
2 2 3 3 3 4 3 3 2 2 1 1 1 1 2 2 2 3 3 3 3 3 3 3 3 4 4 4 4 5 5 5 5 5 5 6 6 6 7 7 7 7 8
2 2 2 3 3 3 3 2 1 1 1 1 1 1 1 2 2 2 3 3 3 3 3 3 3 3 3 3 4 4 4 4 4 5 5 5 5 6 6 6 7 7 7
1 2 3 3 3 3 3 2 1 1 1 1 1 1 1 2 2 2 2 3 2 2 2 2 2 3 3 3 3 3 4 4 4 4 4 4 5 5 6 6 6 7 7
1 2 3 4 4 4 3 2 1 1 1 2 1 1 1 2 2 2 2 2 2 2 2 2 2 2 2 2 3 3 3 3 4 4 3 3 4 4 5 5 5 6 6
2 3 4 4 4 4 4 3 2 2 1 2 2 2 2 2 2 2 2 2 2 2 2 2 2 2 2 2 2 2 2 3 3 3 3 3 4 4 4 4 5 6 6
2 3 5 5 5 5 5 4 3 2 2 2 2 2 2 2 2 2 2 2 2 2 2 2 2 2 2 2 1 1 1 2 2 2 3 3 3 3 4 4 4 5 5
2 3 5 6 6 7 6 5 4 3 2 2 2 2 2 3 3 3 2 2 2 2 2 2 3 2 2 2 2 1 1 1 1 2 2 2 2 2 3 3 3 4 5
2 3 5 7 8 8 8 7 6 4 3 3 3 2 2 3 3 3 3 2 2 3 3 3 3 3 3 2 2 2 1 1 1 2 2 2 2 2 2 2 3 3 4
4 5 6 7 8 9 8 8 7 6 5 4 3 3 2 3 4 4 3 3 3 3 3 3 3 3 3 2 1 1 1 1 1 1 1 2 2 2 2 2 3 3 3
5 6 6 7 9 9 9 9 8 7 6 5 4 3 3 3 4 4 4 3 3 3 3 3 3 3 2 2 1 1 1 1 1 1 1 1 1 1 2 2 3 3 2
6 6 6 8 10 10 10 10 10 8 7 6 6 4 4 3 4 4 4 4 3 3 3 3 3 3 2 2 1 2 1 0 1 1 1 1 1 1 2 3 3 3 2
6 6 7 8 10 11 11 11 11 10 9 8 7 6 4 4 4 4 4 4 3 3 3 3 3 3 2 2 1 1 1 0 1 0 0 1 1 1 2 3 3 3 2
7 7 8 9 10 11 12 12 12 12 11 10 9 7 6 5 4 4 4 3 3 2 2 2 3 3 3 2 1 2 1 0 1 1 0 0 0 1 2 2 2 2 2
7 7 8 9 10 11 12 12 13 12 12 11 10 9 8 6 5 5 4 4 4 3 2 3 3 2 3 2 1 1 2 1 1 1 1 0 0 1 1 1 2 2 2
7 8 9 8 9 10 11 12 13 14 13 12 11 11 10 8 7 6 5 4 4 4 3 2 2 2 3 2 1 1 1 1 1 1 1 1 1 1 1 2 2 2 3
6 8 9 9 10 11 11 12 14 14 14 13 12 12 11 10 8 7 6 5 5 4 3 3 3 3 3 2 2 1 1 1 1 1 0 1 1 1 1 2 2 2 3
6 7 8 10 10 12 12 12 13 15 15 14 13 13 13 11 10 8 7 6 5 5 4 3 3 3 2 1 1 1 1 1 0 0 0 1 1 1 2 2 3 3 2
7 8 9 10 11 12 12 12 13 15 15 15 14 15 14 13 11 10 9 7 6 6 5 4 3 3 2 1 1 0 0 0 1 0 0 1 1 1 2 2 3 3 2
8 8 9 10 11 11 12 12 12 13 15 15 15 15 16 14 13 11 9 8 8 7 6 5 4 4 2 2 2 1 1 1 1 1 1 1 1 2 2 3 3 3 2
9 9 9 10 12 12 13 13 13 13 14 15 15 16 16 16 14 12 11 10 9 8 7 6 5 5 4 3 3 2 2 2 2 2 2 2 1 2 2 3 3 3 3
10 10 10 11 12 12 13 13 13 13 13 14 16 16 17 17 15 14 13 12 10 9 8 7 6 5 5 4 4 3 3 3 3 3 2 2 2 2 2 3 3 3 2
11 11 12 13 13 13 14 15 14 14 14 14 16 17 17 17 16 15 14 13 12 11 9 8 7 7 6 5 5 5 4 4 3 3 3 2 2 2 2 2 3 3 2
12 12 11 12 13 14 15 15 14 14 14 15 15 16 17 17 17 16 16 14 13 12 11 10 9 8 7 6 6 6 5 5 4 3 3 2 2 2 2 2 2 2 2
11 11 11 12 12 14 14 15 15 15 16 16 17 18 18 18 17 17 16 16 15 14 13 11 10 9 8 7 7 7 7 6 5 5 4 4 4 4 4 3 3 3 2
11 10 11 11 12 13 14 15 15 15 16 18 19 19 19 18 18 17 16 16 16 15 14 13 12 11 10 9 8 8 8 8 7 7 6 6 6 6 6 5 5 5 5
9 9 10 11 11 12 13 14 15 16 16 17 19 19 19 19 18 18 17 17 17 17 16 15 14 13 12 11 10 10 10 10 9 9 8 8 8 8 8 8 8 8 8

GEFSSE_500_meanwind_150.txt.gz
Wind_Speed
3 3 2 3 4 5 7 8 9 9 9 8 8 8 8 8 8 8 8 8 8 7 7 7 6 6 6 6 6 6 6 6 6 6 7 7 7 7 7 8 8 8 8
3 2 2 3 3 4 6 7 8 8 8 8 7 7 8 8 8 8 8 8 8 7 7 6 6 6 6 6 6 6 6 6 6 6 6 6 6 6 7 7 7 8 8
2 2 2 2 3 4 5 6 7 8 8 7 7 7 7 7 8 8 8 7 7 7 7 6 6 6 5 5 5 5 5 5 5 5 6 6 6 5 6 6 7 7 8
2 2 2 2 3 3 4 5 6 7 7 7 7 7 7 7 7 7 7 7 7 7 6 6 6 5 5 5 5 5 5 4 4 5 5 5 5 5 5 6 6 7 7
1 1 1 2 3 3 4 4 5 6 6 7 7 6 6 7 7 7 7 7 7 7 6 6 6 5 5 5 4 4 4 4 4 4 4 4 4 4 5 5 6 7 7
0 1 1 2 3 3 4 4 5 5 6 6 6 6 6 6 6 6 7 6 6 6 6 6 5 5 4 4 4 4 4 4 3 3 3 3 3 4 5 5 5 6 6
1 2 1 2 3 3 4 4 4 5 5 5 5 5 5 6 6 6 6 6 6 6 5 5 5 4 4 4 3 3 3 3 3 3 3 3 3 4 4 4 5 5 5
1 2 2 3 3 3 4 4 4 4 4 4 5 5 5 5 5 5 5 5 5 5 5 4 4 4 4 4 3 2 3 3 3 3 3 3 2 3 3 3 3 4 4
1 2 3 3 4 4 4 4 4 4 4 4 3 3 4 4 4 5 4 4 4 4 4 4 4 4 4 3 3 2 2 2 2 2 2 2 2 2 2 2 3 3 3
2 3 3 5 5 6 5 4 4 4 4 3 3 2 2 3 3 4 4 3 3 3 3 4 4 4 4 4 3 3 2 2 2 2 2 1 1 2 2 2 3 3 3
3 3 3 4 6 7 7 6 5 5 4 4 3 2 1 1 2 3 3 3 3 3 3 3 4 4 4 3 3 2 2 2 2 1 1 1 1 2 2 3 3 3 3
4 4 4 5 6 7 8 7 6 6 6 5 4 3 1 1 1 2 3 2 2 2 2 2 3 3 3 3 3 2 2 2 2 1 1 1 1 1 2 3 3 3 3
6 5 5 6 6 7 8 8 7 7 7 6 6 4 3 3 2 2 2 2 1 1 1 2 2 3 3 3 2 2 2 1 1 1 1 0 1 2 2 3 3 3 3
7 6 6 7 8 8 8 8 8 8 8 8 7 6 5 4 4 3 3 2 1 0 0 1 2 2 3 3 2 1 1 1 1 1 1 0 1 1 2 3 3 3 3
7 7 6 7 8 9 9 8 9 9 9 9 8 8 7 6 5 5 4 3 2 2 1 0 1 1 2 2 1 1 1 1 1 1 1 0 1 1 2 3 3 3 3
8 8 7 7 8 9 10 10 10 10 10 10 10 9 8 8 7 6 5 4 3 3 2 2 1 1 1 2 1 0 0 0 1 1 1 0 1 1 1 2 3 3 3
8 9 8 8 8 9 10 10 11 11 11 11 11 11 10 9 8 7 6 5 4 4 3 3 3 1 1 1 1 0 0 0 0 0 0 1 1 1 1 1 2 3 3
10 9 9 10 9 10 11 11 12 11 12 12 12 12 12 11 10 9 8 7 6 5 5 5 4 3 1 1 0 0 1 1 1 1 1 1 1 1 1 1 2 3 3
10 9 10 10 11 12 12 12 13 12 13 13 13 14 13 12 12 11 10 9 8 7 6 6 5 4 2 2 1 1 1 1 1 1 1 1 2 2 2 2 2 3 3
9 10 11 11 12 13 13 13 14 14 13 14 15 16 14 14 13 13 12 11 10 9 8 7 6 5 4 4 3 3 3 2 2 1 1 1 2 2 2 3 3 3 3
9 10 11 12 14 14 14 14 15 15 14 15 16 17 15 14 14 13 13 12 11 10 10 9 8 7 6 5 5 4 3 3 2 2 2 2 2 3 3 4 4 4 4
10 11 12 14 15 16 16 16 16 17 16 15 16 16 16 16 15 14 14 13 12 11 11 10 9 9 8 7 6 6 5 5 4 3 3 3 3 3 3 3 4 4 5
11 12 12 14 15 16 17 17 17 17 17 17 17 18 17 16 16 15 15 14 13 13 12 12 12 11 9 9 8 7 7 6 6 5 4 4 4 4 3 3 4 5 6
12 13 14 14 15 15 16 18 18 18 17 17 19 19 19 17 17 16 16 15 15 15 15 14 13 12 11 10 9 8 8 8 7 7 7 6 6 6 5 5 5 5 6
13 13 14 15 14 14 14 15 16 18 18 18 19 19 19 19 19 18 17 16 16 17 16 15 15 14 13 12 10 10 10 10 10 9 9 9 8 8 8 8 8 8 8
13 13 13 13 13 14 14 14 14 16 16 18 19 19 20 20 20 19 18 17 17 17 18 17 16 15 14 14 13 12 12 12 12 12 11 11 11 11 10 10 11 11 11

GEFSSE_500_meanwind_156.txt.gz
Wind_Speed
8 8 8 8 7 7 8 10 10 11 12 12 12 12 12 11 11 11 10 10 9 8 8 8 8 7 7 7 7 7 7 7 7 7 7 7 7 7 7 7 7 7 7
7 7 7 6 7 7 8 9 10 10 11 12 12 11 11 11 10 10 10 9 9 8 8 7 7 7 7 7 7 7 7 7 7 6 7 6 6 6 6 5 6 6 6
7 7 6 6 6 7 8 9 9 10 11 11 11 11 11 10 10 9 9 9 8 7 7 7 7 6 6 7 7 6 7 7 7 6 6 6 5 5 5 5 5 6 6
6 6 6 6 7 7 8 8 9 10 11 11 11 11 10 10 9 9 8 8 7 7 6 6 6 6 6 6 6 6 6 6 6 6 6 5 5 4 4 4 5 5 6
5 6 6 6 7 7 8 8 9 10 11 11 11 10 10 9 9 8 8 7 7 7 6 6 6 6 5 5 5 6 6 5 5 4 4 4 4 4 4 4 5 5 5
5 6 6 6 7 7 8 8 9 10 10 10 10 10 9 9 8 8 7 7 7 7 6 6 5 5 5 5 5 5 5 4 4 4 4 4 4 4 4 4 5 5 5
5 5 6 6 7 7 8 8 9 9 10 10 10 9 9 8 8 7 7 6 6 6 6 5 5 5 4 4 4 5 4 3 3 4 4 4 4 4 4 4 4 5 5
4 4 5 6 7 8 8 8 9 9 10 9 9 8 8 8 7 6 6 6 5 5 5 5 4 4 3 3 4 4 4 3 3 3 3 3 3 3 3 3 3 4 5
3 4 5 6 7 8 8 8 8 9 9 9 9 8 7 7 6 6 5 5 4 4 4 4 4 3 3 3 4 4 3 3 3 2 2 3 3 3 3 3 3 3 4
2 3 5 7 7 8 9 8 8 9 9 9 9 8 7 6 6 5 5 4 4 4 4 4 3 3 3 3 3 3 3 3 2 2 1 2 3 3 3 3 3 3 3
2 3 5 7 7 8 9 9 9 9 9 9 9 8 7 6 5 5 4 4 4 4 3 3 3 3 3 3 3 3 2 2 1 1 1 2 2 3 3 3 3 3 2
2 4 5 7 8 9 10 10 10 10 9 9 9 8 6 6 5 4 4 4 4 3 3 3 3 3 2 2 2 2 2 2 2 1 1 2 2 2 2 2 3 2 2
4 5 6 7 9 10 11 11 11 11 10 10 9 8 7 5 5 4 3 3 3 3 3 3 3 3 2 2 2 2 1 2 1 1 1 1 1 2 2 2 2 2 2
5 6 6 8 9 11 11 12 12 11 10 10 10 9 8 6 5 4 4 3 3 3 3 2 2 2 2 2 2 2 1 1 1 1 1 1 1 2 2 2 2 2 2
6 6 7 9 10 11 11 12 13 13 11 11 11 9 9 8 6 5 4 4 3 3 3 2 2 2 1 1 2 1 1 1 1 1 1 1 1 2 2 3 3 3 2
7 7 9 10 11 12 12 13 13 13 12 12 12 10 10 9 8 6 5 4 4 4 4 3 2 2 1 1 1 1 1 1 1 1 0 0 0 1 2 3 3 3 3
9 8 9 11 12 12 13 13 13 13 13 12 12 11 11 10 10 8 6 6 5 5 5 4 3 2 1 1 1 2 1 2 1 1 1 0 0 1 1 2 2 3 4
10 10 10 12 13 13 14 14 14 14 14 13 13 12 12 12 11 10 8 7 7 6 5 5 4 3 2 1 1 2 1 2 2 1 1 1 0 1 1 1 2 3 3
10 11 11 12 13 14 15 15 14 15 15 14 14 15 14 14 13 12 10 9 8 7 6 6 5 4 4 3 2 2 2 2 2 2 1 1 1 1 1 2 2 3 3
11 12 12 12 13 14 14 15 15 15 16 16 16 16 16 16 14 14 12 11 9 8 8 7 6 6 5 5 4 3 3 2 2 2 2 1 1 2 2 3 3 3 3
10 11 12 12 13 14 15 16 17 17 17 17 17 16 16 17 16 15 14 13 11 10 9 8 7 7 6 6 5 5 4 3 3 3 2 2 2 3 3 4 4 4 4
11 12 12 12 13 14 15 16 17 18 18 18 18 17 17 17 16 16 15 14 13 12 10 10 9 8 8 7 7 6 6 5 4 4 4 4 4 4 4 4 5 5 5
12 12 12 12 13 14 14 16 17 18 19 18 18 18 18 17 17 17 17 15 14 13 13 12 11 11 10 9 8 8 7 7 6 6 6 5 5 6 5 5 5 5 6
11 11 12 12 12 14 15 15 17 18 18 19 19 19 19 19 19 18 17 16 15 15 14 13 13 12 11 11 10 9 9 9 8 7 7 7 7 7 7 7 7 6 6
11 12 13 13 13 14 15 14 15 16 17 19 20 20 20 20 20 20 19 18 16 15 14 14 14 14 13 12 12 12 11 11 10 10 10 10 9 9 9 9 9 9 9
12 12 12 13 13 13 13 14 14 15 17 18 19 20 20 20 21 21 21 20 18 17 15 15 16 15 15 14 14 14 13 13 13 12 12 12 12 11 11 11 11 12 12

GEFSSE_500_meanwind_162.txt.gz
Wind_Speed
6 6 6 6 6 6 6 6 6 6 7 7 8 8 8 7 7 7 7 8 8 8 8 8 7 7 7 7 6 6 6 6 6 6 6 6 6 6 6 6 5 5 5
4 5 5 5 5 5 5 5 5 5 6 6 7 7 7 7 7 7 7 7 7 7 7 7 7 7 7 6 6 6 6 6 5 6 6 6 6 6 5 5 5 5 5
3 4 4 4 4 4 4 5 5 5 6 6 6 6 6 6 6 6 7 7 6 6 6 6 6 6 6 6 6 5 5 5 5 5 6 5 5 5 5 4 4 4 4
2 2 3 3 4 4 4 5 5 5 6 6 5 5 5 5 5 6 6 6 6 6 5 5 5 5 5 5 5 5 4 4 4 4 5 5 4 4 4 4 4 4 4
1 2 2 3 3 4 4 4 5 5 6 5 5 4 4 4 5 5 5 5 5 5 5 5 5 5 4 4 4 4 4 3 3 3 4 4 4 4 4 4 3 3 3
1 2 2 3 3 4 4 4 5 5 5 5 5 4 4 4 4 5 5 5 5 5 5 5 5 4 4 3 3 3 3 2 3 2 3 3 3 3 3 3 3 2 3
2 2 2 2 3 4 4 4 5 6 5 5 5 4 3 4 4 4 4 4 4 4 4 4 3 3 2 2 2 2 2 2 2 2 2 2 2 2 3 2 2 2 2
2 2 2 3 3 4 5 5 5 6 6 6 5 4 3 3 3 3 3 3 3 3 3 3 3 2 2 1 1 2 2 2 2 2 2 2 2 2 2 2 2 1 1
3 3 3 3 4 4 4 5 6 6 6 6 5 4 3 2 3 3 3 3 3 3 2 2 2 2 1 1 1 1 1 1 2 2 2 2 2 2 2 2 2 1 1
3 3 3 4 4 5 5 6 6 6 6 6 5 4 3 2 2 2 2 2 2 2 2 2 2 1 1 1 1 1 2 2 2 2 2 2 2 2 2 2 2 1 1
3 4 4 4 5 6 6 6 6 7 6 6 6 5 4 3 2 2 1 1 1 1 2 2 2 1 1 1 1 1 2 2 2 2 2 2 2 2 2 2 2 2 2
5 5 5 5 5 6 7 7 7 7 7 7 6 6 4 3 2 2 1 1 1 1 2 2 2 1 1 1 1 1 2 2 2 3 3 3 2 2 2 2 1 2 2
6 6 6 6 6 6 7 8 8 8 8 8 7 6 5 4 3 2 2 2 1 0 1 1 1 1 1 1 1 2 2 2 2 2 2 3 2 1 2 2 1 2 2
7 7 6 5 6 7 8 9 9 9 8 8 7 6 6 4 3 2 2 2 2 1 0 0 1 1 1 1 1 1 1 1 2 1 1 2 2 1 1 2 2 2 2
8 8 7 6 7 8 9 9 10 10 9 8 7 7 7 5 4 4 3 2 2 2 2 1 1 1 1 1 1 1 1 1 1 1 2 2 2 1 1 1 1 1 1
9 8 8 8 9 9 10 10 10 10 10 9 8 8 7 6 6 5 4 3 3 3 3 2 2 2 2 1 1 1 1 1 2 2 2 2 2 1 0 0 0 0 1
10 9 9 8 8 9 10 11 11 11 11 10 9 9 8 8 7 6 5 5 5 4 4 3 3 2 2 2 1 1 1 1 1 1 1 2 2 2 1 1 0 0 0
11 10 10 10 9 10 10 11 11 11 11 11 11 10 9 9 8 8 7 7 6 5 5 5 4 3 3 2 2 1 1 1 1 1 1 1 2 2 2 1 1 1 1
12 12 11 11 10 10 10 11 12 13 13 12 12 11 11 11 10 9 9 9 8 7 6 6 5 4 4 3 3 2 1 1 1 1 0 1 1 1 1 1 1 1 1
13 12 12 11 11 10 10 10 11 12 13 13 13 12 12 12 12 11 10 10 10 8 8 7 6 5 5 4 4 4 3 2 2 1 1 0 0 1 1 1 2 2 2
13 12 11 11 11 10 10 10 10 11 13 13 13 13 13 13 13 13 12 12 10 9 9 8 7 6 6 5 5 5 4 3 3 2 2 1 1 1 2 2 2 3 3
12 11 11 11 11 11 11 10 11 12 12 12 13 13 13 13 14 14 14 13 12 10 10 9 9 8 8 7 6 6 6 5 4 3 3 3 3 3 3 3 3 3 3
11 10 10 11 11 11 11 11 12 12 12 12 13 14 14 15 15 14 15 15 14 13 12 11 11 10 10 9 8 8 8 7 6 5 4 4 4 4 5 5 4 4 4
11 11 11 11 11 11 11 12 13 12 13 13 14 14 15 15 16 16 16 16 15 15 14 14 13 13 12 11 10 10 10 9 8 7 6 6 6 7 7 6 6 5 5
12 11 12 12 12 11 11 12 12 12 12 13 14 14 15 15 16 16 16 16 17 17 16 16 16 15 14 13 12 12 11 11 10 10 9 8 9 9 9 8 8 8 8
12 11 11 12 12 12 12 12 12 12 13 13 14 15 16 15 16 16 16 17 17 17 17 17 17 16 15 15 14 13 13 13 12 12 12 11 11 11 11 10 10 10 10

GEFSSE_500_meanwind_168.txt.gz
Wind_Speed
7 7 7 7 6 5 4 4 4 3 3 3 3 3 4 4 5 5 5 6 6 7 7 7 7 7 7 7 7 7 7 7 7 7 7 7 6 6 7 7 6 7 7
6 6 6 5 5 5 4 4 3 3 3 3 3 3 3 4 4 4 5 5 5 6 6 6 6 6 7 7 7 7 7 7 7 7 6 6 6 6 6 6 6 6 6
5 5 4 4 4 4 4 3 3 2 2 3 3 3 3 4 4 4 4 4 4 5 5 5 6 6 6 6 6 6 6 6 6 6 6 6 5 5 6 6 6 6 6
4 4 3 3 3 3 3 2 2 2 2 2 2 3 3 3 3 4 4 4 4 4 4 4 5 5 6 6 6 6 6 6 6 5 5 5 5 5 5 5 5 5 5
3 3 3 2 2 2 2 2 2 2 2 2 2 3 3 3 3 3 3 3 3 3 3 3 4 5 5 5 5 5 5 5 5 5 5 5 5 4 4 4 4 4 5
4 3 3 2 2 2 2 2 1 1 1 2 2 3 3 2 2 2 3 3 3 2 3 3 3 4 4 4 4 4 4 4 4 4 4 4 4 4 4 4 4 4 5
4 4 3 2 2 1 1 1 1 1 1 1 2 3 3 3 2 3 3 3 2 2 2 2 3 3 3 3 3 3 4 4 4 4 3 3 3 3 4 4 4 4 4
4 3 2 2 1 1 1 1 1 0 0 1 2 3 3 3 2 2 3 2 3 3 3 2 3 3 3 3 3 3 3 3 3 3 3 3 3 3 3 4 4 4 3
4 3 2 1 1 1 1 1 1 1 1 1 2 2 3 3 3 2 2 2 2 3 3 3 3 3 3 2 2 2 3 3 3 3 3 3 3 3 3 3 4 4 4
4 3 2 1 1 1 1 1 1 1 0 1 2 2 3 3 3 2 2 2 3 3 3 3 3 3 3 2 2 2 2 3 3 3 3 3 3 3 3 4 4 4 4
4 3 2 1 1 0 1 1 1 1 1 1 1 2 2 3 3 2 2 2 2 3 3 3 4 3 3 3 3 3 3 2 3 3 3 3 3 2 3 3 4 4 4
3 3 2 1 1 1 1 2 2 2 1 1 1 1 2 2 2 2 2 2 2 3 3 3 3 3 3 3 3 3 2 2 2 3 3 2 2 2 3 4 4 4 4
3 2 2 2 1 2 2 2 3 3 2 2 1 1 1 1 2 1 1 2 2 2 2 3 3 3 3 2 2 2 2 2 2 2 2 2 2 3 3 4 4 5 4
3 3 3 2 1 2 3 3 4 4 3 2 2 1 1 2 2 1 1 2 2 2 2 3 2 2 2 2 2 2 2 2 2 2 2 2 3 3 3 3 4 4 4
4 3 4 3 2 2 3 3 4 5 4 3 2 2 2 2 1 1 1 1 2 2 2 2 2 1 1 1 2 2 2 2 2 2 2 2 2 3 3 3 3 3 4
3 3 4 3 3 3 4 4 5 6 5 4 3 3 2 2 2 2 1 1 2 2 2 2 2 2 2 1 1 1 2 2 1 2 2 2 2 2 2 2 2 3 3
5 4 4 4 4 4 5 5 6 6 6 6 5 4 3 3 3 3 2 2 2 2 2 2 2 3 2 2 1 0 0 1 1 1 1 2 2 2 2 2 2 3 3
7 6 5 4 4 5 6 7 7 7 8 8 7 6 5 5 5 5 4 3 3 3 2 2 2 3 2 1 1 1 1 0 1 0 0 1 2 2 2 2 2 2 3
8 7 6 6 6 6 6 7 8 9 9 9 8 8 8 7 7 7 6 5 4 3 3 3 3 3 2 2 2 2 2 2 2 1 1 1 2 2 2 2 2 2 3
9 8 7 6 6 6 6 6 8 9 10 9 9 9 9 9 9 8 7 6 6 5 4 4 4 4 3 3 3 3 3 4 3 3 3 3 3 3 3 3 3 3 3
9 9 8 7 7 7 6 6 8 9 9 9 9 9 9 9 9 10 10 9 8 7 7 6 6 5 5 4 5 5 5 5 5 4 4 3 3 3 3 3 4 4 4
9 8 8 8 7 7 6 6 8 9 10 9 9 10 11 10 11 11 10 11 10 10 9 9 8 7 7 6 6 6 6 6 6 6 5 5 5 5 5 5 5 5 5
7 6 7 7 7 6 6 6 8 9 9 10 10 11 11 12 11 11 12 12 12 11 11 10 10 9 8 8 7 8 8 8 8 8 7 7 7 7 7 6 7 7 7
7 7 7 7 8 7 7 7 8 9 9 9 10 11 12 12 12 12 13 13 14 13 13 12 12 12 10 10 10 9 9 10 10 9 9 9 9 8 9 9 9 9 9
8 7 8 9 8 8 8 8 8 10 10 11 11 11 11 11 12 13 14 14 14 14 14 14 14 13 12 12 12 12 12 12 12 11 11 11 11 10 11 11 11 11 11
8 8 8 9 8 8 8 8 8 9 10 10 11 12 13 12 12 13 14 14 14 15 15 14 14 14 14 14 14 14 13 13 13 13 13 14 14 13 13 13 13 13 14

GEFSSE_500_meanwind_174.txt.gz
Wind_Speed
8 7 7 7 8 9 10 11 11 11 11 11 10 10 10 9 9 8 8 8 8 8 8 8 8 8 8 8 8 8 8 7 7 8 7 8 8 8 8 8 8 8 8
7 6 6 7 8 8 9 10 11 11 11 10 10 9 9 9 8 8 7 7 7 8 8 7 7 7 7 7 7 7 7 7 7 7 7 7 7 7 7 7 7 7 7
5 5 6 7 7 8 9 10 10 10 10 10 9 9 8 8 8 7 7 7 7 7 7 7 7 7 7 7 7 7 7 7 7 7 6 6 6 6 6 6 6 7 7
5 5 5 6 7 8 9 9 9 9 9 9 9 9 8 8 7 7 7 7 7 7 7 7 7 6 7 7 6 6 6 6 6 6 6 6 6 6 5 6 6 7 7
4 4 5 6 6 7 8 8 9 9 9 9 9 9 8 8 7 7 7 7 7 7 6 6 6 6 6 6 6 6 5 6 5 5 5 5 5 5 5 5 5 6 6
4 4 5 5 5 6 7 7 8 8 8 8 8 8 8 8 8 7 7 7 6 6 6 6 5 5 5 5 5 5 5 5 4 5 5 5 5 5 5 5 5 5 6
3 4 5 6 6 6 6 7 7 7 7 7 7 8 8 7 7 7 7 7 7 6 6 5 5 4 4 4 4 4 4 5 4 5 5 5 4 4 4 4 4 4 5
4 4 4 4 4 5 5 6 6 6 6 6 7 7 7 7 7 7 7 7 7 6 6 5 5 4 4 4 4 4 4 4 4 5 5 4 4 4 4 3 3 3 4
4 4 4 4 4 4 5 5 5 5 5 6 6 6 6 7 7 7 7 7 6 7 6 5 5 5 4 4 4 4 4 4 4 4 4 4 3 4 3 3 2 3 3
4 4 4 4 4 4 4 4 4 5 5 5 6 6 6 6 6 6 6 6 6 6 6 5 5 5 5 4 4 4 4 4 4 3 3 3 3 3 3 3 2 2 3
5 5 4 4 3 3 4 4 4 4 4 5 5 5 5 5 5 5 5 5 6 6 6 5 5 5 5 4 4 4 3 3 3 3 3 3 3 2 2 3 2 2 2
4 4 3 3 2 2 3 3 3 3 4 4 4 4 4 4 4 4 4 5 5 5 5 5 4 4 5 4 4 4 4 3 3 3 3 3 3 3 2 2 2 2 2
4 3 3 2 1 1 2 3 3 3 3 3 3 3 3 4 4 3 3 4 4 4 4 4 4 4 4 4 4 4 4 4 3 3 3 3 3 2 2 2 2 2 1
4 3 2 2 1 1 2 3 4 4 3 3 2 1 2 2 2 2 3 3 3 3 3 4 3 3 3 3 3 4 4 4 4 3 3 3 3 2 2 1 1 1 1
4 3 2 1 1 1 3 4 4 4 3 3 2 2 1 0 1 1 1 1 2 2 2 3 3 2 2 2 3 3 3 4 4 3 3 3 2 2 1 1 1 0 0
5 4 3 2 2 2 3 4 5 5 4 4 3 3 2 1 1 1 1 1 1 1 2 2 2 2 2 2 2 2 2 3 4 3 3 2 2 1 1 0 0 0 1
5 5 4 3 3 4 4 5 6 6 6 5 4 4 3 3 3 2 2 2 2 1 1 1 2 1 1 0 0 1 2 2 2 2 2 2 1 1 0 0 0 1 1
6 6 5 3 3 4 5 6 6 7 8 7 6 5 5 5 4 4 4 4 3 3 2 1 1 1 1 0 0 0 0 1 1 2 1 1 1 1 0 1 2 2 2
7 7 5 4 5 5 6 6 6 7 8 8 7 7 7 6 6 6 6 5 5 5 4 3 3 2 2 1 1 1 1 1 1 1 2 2 2 2 2 2 3 3 4
9 8 6 6 6 6 6 7 7 8 9 9 8 8 7 7 7 7 8 7 7 7 6 5 5 4 4 3 3 3 3 3 3 2 2 3 3 3 3 4 4 4 5
9 8 7 7 8 8 8 7 8 8 9 10 9 8 8 8 8 8 9 10 9 9 8 7 6 6 5 5 5 4 4 4 4 4 4 4 4 4 5 5 6 6 6
9 8 8 8 9 9 8 8 9 9 9 10 10 9 9 9 9 10 9 10 10 9 9 9 8 8 8 7 7 7 7 6 6 5 6 6 6 6 7 7 7 7 8
9 8 8 8 9 10 9 9 10 10 10 11 10 10 10 10 10 10 11 11 11 11 11 11 10 10 10 10 9 9 9 8 8 8 8 8 8 8 8 9 9 9 9
8 8 8 9 10 11 11 11 11 11 11 11 12 11 11 11 11 12 13 12 12 13 13 13 13 13 13 12 12 12 12 11 11 10 10 10 10 10 10 10 10 11 11
8 8 9 10 9 10 11 12 12 12 12 12 13 12 12 12 13 14 14 14 14 14 15 16 15 15 14 14 14 14 14 14 14 14 13 13 13 12 12 12 13 13 14
8 9 9 10 9 9 11 12 12 12 13 13 13 13 14 14 14 14 15 16 16 17 17 18 17 16 16 16 16 16 16 16 16 16 16 16 16 15 15 15 15 15 16

GEFSSE_500_meanwind_180.txt.gz
Wind_Speed
11 10 10 10 9 10 10 11 12 12 13 13 13 13 12 12 12 12 11 11 11 11 10 10 10 10 10 9 9 9 8 8 8 7 7 7 7 7 7 6 6 6 6
10 10 9 8 8 9 9 10 11 12 12 12 12 12 12 12 11 11 11 11 10 10 10 10 9 9 9 9 8 8 8 8 7 7 6 6 6 6 6 6 6 6 6
10 9 9 8 8 8 9 10 10 11 11 11 11 11 11 11 11 10 10 10 10 10 9 9 8 8 8 8 8 8 7 7 6 6 6 5 5 6 6 6 5 5 6
9 8 8 8 7 8 8 9 10 10 11 11 11 11 10 10 10 10 9 9 9 9 8 8 8 8 8 8 7 7 6 6 6 6 5 5 5 5 5 5 5 5 5
7 7 7 6 7 7 8 9 9 10 10 10 10 10 10 9 9 9 8 8 8 8 8 7 7 7 7 7 7 6 6 6 5 5 5 5 5 5 5 5 5 5 5
6 6 6 5 6 7 7 8 9 9 10 10 10 10 9 9 9 8 8 8 8 7 7 7 6 6 6 6 6 5 5 5 5 5 5 5 5 5 5 5 4 4 5
5 4 4 4 5 6 7 7 8 9 9 9 9 9 9 9 8 8 8 8 8 7 7 6 6 6 5 5 5 5 5 5 5 5 5 5 4 4 4 4 4 4 5
5 4 3 4 4 5 6 7 7 8 8 8 8 8 8 8 8 8 8 8 7 7 6 6 5 5 5 4 4 4 4 4 5 5 5 4 4 4 4 3 3 4 4
5 4 3 2 3 4 5 6 6 7 7 7 8 8 7 8 8 8 7 7 7 6 6 6 5 5 4 4 4 4 4 4 5 5 5 5 4 3 3 3 3 3 3
4 3 2 2 3 4 5 6 6 6 7 7 7 7 7 7 7 7 7 6 6 6 6 5 5 5 4 4 4 4 4 4 4 4 4 4 4 3 3 3 3 3 3
3 2 2 2 3 4 4 5 5 6 7 7 6 7 7 6 6 6 6 5 6 5 5 5 5 5 5 4 4 4 4 4 4 4 4 4 4 4 3 3 3 3 3
3 2 2 2 2 3 3 4 4 5 6 6 6 6 6 6 6 5 5 5 5 5 5 4 4 5 4 4 4 4 4 4 4 3 4 4 4 4 3 3 3 3 3
2 1 1 1 2 2 2 3 4 5 5 5 5 5 5 4 4 4 4 4 4 4 4 4 4 4 4 4 4 4 4 4 4 4 3 3 3 3 3 3 3 3 2
2 2 1 1 1 1 2 4 4 4 4 4 4 4 4 3 3 3 3 3 3 3 3 4 4 3 3 3 3 3 3 3 3 3 3 3 3 3 2 2 2 2 2
3 2 2 2 2 2 3 4 4 4 4 4 4 3 3 2 2 2 2 2 2 2 2 3 3 3 2 3 3 3 3 3 3 3 3 3 3 2 2 2 1 2 2
4 3 3 3 3 3 4 5 5 5 5 4 4 4 3 3 2 2 2 2 2 2 1 2 2 2 2 2 3 3 3 3 3 3 3 2 2 2 2 1 1 1 1
5 4 4 4 5 5 5 6 6 6 6 6 5 5 4 4 3 3 3 2 2 2 1 1 1 1 1 1 1 1 1 2 2 2 2 1 1 1 1 0 1 1 1
6 6 5 5 5 7 7 7 7 7 7 7 7 6 6 5 5 4 4 3 3 3 2 2 1 1 1 0 0 0 0 1 1 1 1 0 1 1 1 2 2 2 2
7 6 6 5 6 7 8 8 8 8 8 8 7 7 7 6 6 5 5 5 5 5 4 3 2 1 1 1 1 1 2 2 1 2 2 2 2 2 2 3 3 3 3
8 7 7 7 7 6 7 8 8 9 8 9 8 8 8 7 6 6 6 6 6 6 6 5 4 4 3 3 3 3 3 3 3 4 4 4 4 4 4 4 4 5 5
9 9 8 8 7 8 8 8 8 9 10 10 9 8 8 8 8 7 6 6 7 7 7 7 6 6 5 5 5 5 5 5 5 5 6 6 6 6 5 6 6 7 7
10 9 9 9 9 9 9 9 9 9 10 10 9 9 9 9 9 9 8 8 8 8 8 8 8 7 7 7 7 7 7 7 8 8 8 8 9 8 8 8 8 8 9
11 10 9 9 10 10 10 10 10 9 10 10 10 10 10 10 10 10 10 9 10 10 10 10 10 10 9 9 9 9 10 10 10 10 10 11 11 11 10 10 10 11 11
11 11 11 10 10 10 11 11 10 10 10 11 11 11 11 11 11 12 11 11 12 11 12 12 12 12 12 12 11 12 12 12 12 12 12 13 13 13 13 12 13 13 13
11 11 11 11 10 10 10 11 11 12 13 12 12 13 13 13 12 13 13 13 13 14 14 14 13 14 13 14 14 14 13 13 14 15 15 15 15 15 15 16 15 15 15
12 12 11 11 10 10 10 10 11 13 14 14 14 13 14 14 14 14 15 15 15 15 15 15 16 16 16 16 16 16 16 15 15 16 16 17 17 17 17 17 18 18 17

GEFSSE_500_meanwind_186.txt.gz
Wind_Speed
8 8 8 7 7 6 6 6 6 7 7 8 8 8 9 9 9 8 9 9 9 10 10 10 11 11 10 10 9 9 9 8 8 7 7 7 7 6 6 6 6 7 7
8 8 7 6 6 6 6 5 5 5 6 6 7 7 8 8 8 8 8 8 9 9 9 10 10 10 10 9 9 8 8 8 7 7 7 7 6 7 7 6 6 7 6
7 7 6 6 5 5 5 4 4 4 5 6 6 6 7 7 8 8 7 7 8 8 8 9 9 9 9 9 8 8 8 7 7 7 7 6 6 6 7 6 6 6 6
6 6 6 5 5 4 4 4 3 4 4 5 6 6 6 6 7 7 7 7 7 7 7 8 8 8 8 8 7 8 7 7 6 6 6 6 6 6 6 6 6 6 6
5 5 5 5 5 4 3 3 3 3 4 4 5 5 5 6 6 6 6 6 7 7 7 7 8 8 7 7 7 7 7 6 6 6 6 6 6 6 6 6 6 6 5
4 4 4 4 4 3 2 2 2 2 3 3 4 4 5 5 6 6 6 6 6 6 6 7 7 7 6 6 6 6 6 6 5 6 6 6 6 6 6 6 6 6 5
4 3 3 3 3 2 1 1 1 1 1 2 3 3 4 4 5 5 5 6 6 6 6 6 6 6 5 5 6 5 5 5 6 6 6 6 6 6 6 5 5 5 5
3 2 2 2 2 1 1 1 1 1 1 1 2 2 3 4 4 5 5 5 6 6 5 5 5 5 5 5 5 5 5 5 5 5 6 6 5 5 5 5 5 4 4
3 2 2 2 1 1 0 0 0 0 1 1 1 2 3 4 4 4 4 5 5 5 5 5 4 4 4 5 5 5 5 5 5 5 5 5 5 5 5 5 5 4 4
4 3 2 2 2 2 1 1 1 1 1 1 1 2 3 3 3 3 4 4 4 4 4 5 4 4 4 4 4 4 4 4 4 4 4 5 5 5 5 5 5 5 4
6 4 3 3 3 2 2 1 1 1 1 1 1 2 2 2 3 3 3 3 3 3 4 4 4 4 4 4 4 3 4 4 4 4 4 4 4 4 5 5 4 4 4
6 5 4 5 4 2 2 1 1 1 2 1 1 1 2 2 2 2 2 2 3 3 3 4 5 4 4 3 4 4 3 3 4 4 4 3 4 4 4 4 4 4 4
7 6 6 5 4 3 2 2 2 2 2 2 1 1 1 1 1 1 1 2 2 2 3 3 4 4 3 3 3 3 3 3 3 4 4 3 3 3 4 4 3 3 2
8 7 7 6 5 4 3 2 2 2 1 1 1 1 1 0 0 1 1 2 2 2 2 3 3 3 3 3 3 3 3 3 3 3 3 3 3 3 3 3 2 2 2
9 9 8 7 6 5 4 2 2 1 1 1 1 1 1 1 1 1 1 1 2 1 1 2 2 2 2 3 3 3 3 2 2 2 2 2 2 3 3 3 2 2 2
9 9 9 7 6 6 4 3 3 3 3 3 2 2 3 2 2 1 1 1 1 1 1 1 2 2 2 2 3 3 3 2 2 1 1 1 2 2 2 2 1 1 1
10 9 9 8 7 6 5 4 4 4 4 4 4 4 4 3 3 2 2 2 2 2 2 1 1 2 1 1 1 2 2 2 2 2 1 1 1 1 1 2 1 1 1
10 10 9 9 8 7 6 5 5 5 5 5 5 5 5 4 4 4 3 3 3 2 2 2 1 2 1 1 1 1 1 2 2 2 1 1 1 1 2 2 2 2 2
10 10 10 9 8 7 7 7 6 6 6 6 5 5 5 4 4 4 4 4 4 4 4 3 2 2 3 2 2 2 2 2 2 2 2 2 2 2 3 3 3 3 4
10 10 10 8 8 8 7 8 7 7 7 7 7 6 5 4 4 4 4 5 5 5 5 5 4 4 4 4 4 4 4 4 4 4 4 3 3 4 4 5 5 5 5
11 12 10 9 9 9 9 9 7 7 6 7 7 7 6 5 6 6 6 6 6 7 6 6 6 6 6 6 5 6 6 5 6 7 6 6 6 6 7 7 7 7 6
13 13 12 11 10 10 9 8 7 6 6 7 6 7 7 7 8 8 8 8 8 9 8 8 7 8 8 8 8 7 7 7 8 9 9 9 9 9 9 9 9 9 8
13 13 13 12 11 10 9 8 8 7 7 7 7 8 8 9 9 8 9 10 10 10 10 10 10 10 9 9 10 10 9 9 9 10 10 10 11 11 11 11 11 11 11
14 13 13 13 12 11 10 9 8 8 8 8 8 9 9 9 9 10 11 11 11 11 11 11 11 11 11 11 11 12 12 11 11 11 12 13 13 13 13 13 14 13 13
14 14 13 13 12 12 11 10 9 10 10 9 9 10 10 10 10 11 11 11 12 12 13 13 13 13 13 13 13 13 13 14 14 14 14 14 14 15 15 15 15 14 14
15 14 13 13 13 12 12 11 11 11 11 10 11 11 10 10 11 12 12 12 13 13 14 13 13 14 14 14 14 14 14 15 16 15 15 15 16 16 16 17 17 16 17